Home > Time Zones > World Clock > Weather > Russia > Ufa > Past weeks

Flag for Russia Weather past 2 weeks in Ufa, Russia

Now
55 °F

Sprinkles. More clouds than sun.


Feels Like: 55 °F
Forecast: 45 / 60 °F
Wind: No wind

Location: Ufa

Current Time: Jul 26, 2014 at 11:46:41 AM

Latest Report: Jul 26, 2014 at 11:00 AM


Visibility: N/A

Pressure: 29.71 "Hg

Humidity: 82%

Dew point: 50 °F

Location of UfaLocation

Historic Weather in Ufa — Graph

°F

Ufa temperature yesterday

Maximum temperature yesterday: 64 °F (at 3:30 PM)
Minimum temperature yesterday: 50 °F (at 11:30 PM)
Average temperature yesterday: 58 °F

Past Weeks' High & Low Weather Summary

 TemperatureHumidityPressure
High84 °F (Jul 16, 4:30 PM)100% (Jul 18, 7:00 AM)30.04 "Hg (Jul 18, 7:00 AM)
Low41 °F (Jul 19, 4:30 AM)28% (Jul 15, 4:30 PM)29.50 "Hg (Jul 23, 8:30 AM)
Average59 °F70%29.81 "Hg
* Reported Jul 11 10:00 AM — Jul 26 10:30 AM, Ufa, Weather by CustomWeather, © 2014

Note: Actual official high and low records may vary slightly from our data, if they occured in-between our weather recording intervals... More about our weather records

Advertising

Ufa weather history for previous 24 hours

 ConditionsComfort  
Time TempWeatherWind HumidityBarometerVisibility
10:30 AM
Jul 26
55 °FMore clouds than sun.No wind82%29.71 "HgN/A
10:00 AM54 °FSprinkles. More clouds than sun.No wind82%29.71 "HgN/A
9:30 AM54 °FMore clouds than sun.No wind82%29.71 "HgN/A
9:00 AM52 °FMore clouds than sun.No wind82%29.71 "HgN/A
8:30 AM52 °FSprinkles. Overcast.No wind88%29.71 "HgN/A
8:00 AM52 °FOvercast.No wind77%29.71 "HgN/A
7:30 AM50 °FPartly sunny.No wind82%29.71 "HgN/A
7:00 AM50 °FPartly sunny.No wind82%29.71 "HgN/A
6:30 AM50 °FPartly sunny.No wind76%29.71 "HgN/A
6:00 AM50 °FPassing clouds.No wind76%29.71 "HgN/A
5:30 AM50 °FPassing clouds.No wind76%29.74 "HgN/A
5:00 AM50 °FPassing clouds.No wind76%29.74 "HgN/A
4:30 AM50 °FPassing clouds.No wind76%29.74 "HgN/A
4:00 AM48 °FPassing clouds.No wind82%29.74 "HgN/A
3:30 AM50 °FPassing clouds.No wind76%29.74 "HgN/A
3:00 AM48 °FPassing clouds.No wind82%29.74 "HgN/A
2:30 AM48 °FPassing clouds.No wind82%29.74 "HgN/A
2:00 AM48 °FClear.No wind76%29.77 "Hg10 mi
1:30 AM48 °FClear.No wind76%29.77 "Hg10 mi
1:00 AM48 °FClear.No wind76%29.77 "Hg10 mi
12:30 AM48 °FClear.No wind76%29.77 "Hg10 mi
12:00 AM50 °FClear.No wind71%29.77 "Hg10 mi
11:30 PM
Jul 25
50 °FClear.3 mph71%29.80 "Hg10 mi
11:00 PM54 °FPassing clouds.3 mph63%29.80 "HgN/A
10:30 PM55 °FBroken clouds.3 mph59%29.80 "HgN/A
10:00 PM57 °FBroken clouds.6 mph55%29.80 "HgN/A
9:30 PM59 °FPartly sunny.8 mph48%29.80 "HgN/A
8:30 PM61 °FPartly sunny.10 mph42%29.77 "HgN/A
8:00 PM63 °FPartly sunny.13 mph42%29.77 "HgN/A
7:30 PM61 °FPartly sunny.10 mph45%29.77 "HgN/A
7:00 PM63 °FPartly sunny.8 mph42%29.77 "HgN/A
6:30 PM63 °FPartly sunny.10 mph45%29.77 "HgN/A
6:00 PM63 °FPartly sunny.10 mph45%29.77 "HgN/A
5:30 PM64 °FPartly sunny.10 mph43%29.80 "HgN/A
5:00 PM64 °FPartly sunny.8 mph43%29.80 "HgN/A
4:30 PM64 °FPartly sunny.10 mph43%29.80 "HgN/A
4:00 PM63 °FPartly sunny.8 mph42%29.80 "HgN/A
3:30 PM64 °FPartly sunny.10 mph43%29.80 "HgN/A
3:00 PM63 °FPartly sunny.10 mph49%29.80 "HgN/A
2:30 PM61 °FPartly sunny.8 mph52%29.80 "HgN/A
2:00 PM61 °FPartly sunny.13 mph52%29.80 "HgN/A
1:30 PM61 °FPartly sunny.10 mph48%29.80 "HgN/A
1:00 PM61 °FBroken clouds.13 mph55%29.80 "HgN/A
12:30 PM61 °FBroken clouds.10 mph52%29.80 "HgN/A
12:00 PM59 °FBroken clouds.8 mph59%29.80 "HgN/A
11:30 AM61 °FBroken clouds.10 mph55%29.80 "HgN/A
11:00 AM59 °FBroken clouds.8 mph68%29.80 "HgN/A
Weather by CustomWeather, © 2014

See weather overviewHow to use our weather pages